owner,sensor,date,latitude,longitude,vertical_datum,mass_concentration_of_oxygen_in_sea_water,qcFlag 
SCCF RECON,ioos:station:SCCF:53:1,2009-03-01T00:00:00Z,26.6493,-81.8810,2.28,8.56,1111122 
SCCF RECON,ioos:station:SCCF:53:1,2009-03-01T01:00:00Z,26.6493,-81.8810,2.223,8.42,1111122 
SCCF RECON,ioos:station:SCCF:53:1,2009-03-01T02:00:00Z,26.6493,-81.8810,2.17,8.27,1111122 
SCCF RECON,ioos:station:SCCF:53:1,2009-03-01T03:00:00Z,26.6493,-81.8810,2.117,8.0,1111122 
SCCF RECON,ioos:station:SCCF:53:1,2009-03-01T04:00:00Z,26.6493,-81.8810,2.06,8.19,1111122 
SCCF RECON,ioos:station:SCCF:53:1,2009-03-01T05:00:00Z,26.6493,-81.8810,2.01,8.08,1111122 
SCCF RECON,ioos:station:SCCF:53:1,2009-03-01T06:00:00Z,26.6493,-81.8810,1.975,8.16,1111122 
SCCF RECON,ioos:station:SCCF:53:1,2009-03-01T07:00:00Z,26.6493,-81.8810,2.001,7.91,1111122 
SCCF RECON,ioos:station:SCCF:53:1,2009-03-01T08:00:00Z,26.6493,-81.8810,2.044,7.5,1111122 
SCCF RECON,ioos:station:SCCF:53:1,2009-03-01T09:00:00Z,26.6493,-81.8810,2.088,7.99,1111122 
SCCF RECON,ioos:station:SCCF:53:1,2009-03-01T10:00:00Z,26.6493,-81.8810,2.14,7.9,1111122 
SCCF RECON,ioos:station:SCCF:53:1,2009-03-01T11:00:00Z,26.6493,-81.8810,2.185,7.82,1111122 
SCCF RECON,ioos:station:SCCF:53:1,2009-03-01T12:00:00Z,26.6493,-81.8810,2.206,7.48,1111122 
SCCF RECON,ioos:station:SCCF:53:1,2009-03-01T13:00:00Z,26.6493,-81.8810,2.205,7.57,1111122 
SCCF RECON,ioos:station:SCCF:53:1,2009-03-01T14:00:00Z,26.6493,-81.8810,2.175,7.76,1111122 
SCCF RECON,ioos:station:SCCF:53:1,2009-03-01T15:00:00Z,26.6493,-81.8810,2.14,7.87,1111122 
SCCF RECON,ioos:station:SCCF:53:1,2009-03-01T16:00:00Z,26.6493,-81.8810,2.106,7.85,1111122 
SCCF RECON,ioos:station:SCCF:53:1,2009-03-01T17:00:00Z,26.6493,-81.8810,2.119,7.92,1111122 
SCCF RECON,ioos:station:SCCF:53:1,2009-03-01T18:00:00Z,26.6493,-81.8810,2.172,7.9,1111122 
SCCF RECON,ioos:station:SCCF:53:1,2009-03-01T19:00:00Z,26.6493,-81.8810,2.199,7.79,1111122 
SCCF RECON,ioos:station:SCCF:53:1,2009-03-01T20:00:00Z,26.6493,-81.8810,2.208,7.84,1111122 
SCCF RECON,ioos:station:SCCF:53:1,2009-03-01T21:00:00Z,26.6493,-81.8810,2.222,7.81,1111122 
SCCF RECON,ioos:station:SCCF:53:1,2009-03-01T22:00:00Z,26.6493,-81.8810,2.259,7.97,1111122 
SCCF RECON,ioos:station:SCCF:53:1,2009-03-01T23:00:00Z,26.6493,-81.8810,2.264,7.96,1111122 
SCCF RECON,ioos:station:SCCF:53:1,2009-03-02T00:00:00Z,26.6493,-81.8810,2.249,7.99,1111122 
SCCF RECON,ioos:station:SCCF:53:1,2009-03-02T01:00:00Z,26.6493,-81.8810,2.213,8.14,1111122 
SCCF RECON,ioos:station:SCCF:53:1,2009-03-02T02:00:00Z,26.6493,-81.8810,2.173,7.91,1111122 
SCCF RECON,ioos:station:SCCF:53:1,2009-03-02T03:00:00Z,26.6493,-81.8810,2.126,7.64,1111122 
SCCF RECON,ioos:station:SCCF:53:1,2009-03-02T04:00:00Z,26.6493,-81.8810,2.074,7.68,1111122 
SCCF RECON,ioos:station:SCCF:53:1,2009-03-02T05:00:00Z,26.6493,-81.8810,2.033,7.74,1111122 
SCCF RECON,ioos:station:SCCF:53:1,2009-03-02T06:00:00Z,26.6493,-81.8810,1.984,7.7,1111122 
SCCF RECON,ioos:station:SCCF:53:1,2009-03-02T07:00:00Z,26.6493,-81.8810,1.953,7.85,1111122 
SCCF RECON,ioos:station:SCCF:53:1,2009-03-02T08:00:00Z,26.6493,-81.8810,1.93,7.75,1111122 
SCCF RECON,ioos:station:SCCF:53:1,2009-03-02T09:00:00Z,26.6493,-81.8810,1.91,7.75,1111122 
SCCF RECON,ioos:station:SCCF:53:1,2009-03-02T10:00:00Z,26.6493,-81.8810,1.89,7.4,1111122 
SCCF RECON,ioos:station:SCCF:53:1,2009-03-02T11:00:00Z,26.6493,-81.8810,1.86,7.59,1111122 
SCCF RECON,ioos:station:SCCF:53:1,2009-03-02T12:00:00Z,26.6493,-81.8810,1.851,7.49,1111122 
SCCF RECON,ioos:station:SCCF:53:1,2009-03-02T13:00:00Z,26.6493,-81.8810,1.84,7.41,1111122 
SCCF RECON,ioos:station:SCCF:53:1,2009-03-02T14:00:00Z,26.6493,-81.8810,1.82,7.56,1111122 
SCCF RECON,ioos:station:SCCF:53:1,2009-03-02T15:00:00Z,26.6493,-81.8810,1.809,7.7,1111122 
SCCF RECON,ioos:station:SCCF:53:1,2009-03-02T16:00:00Z,26.6493,-81.8810,1.81,7.97,1111122 
SCCF RECON,ioos:station:SCCF:53:1,2009-03-02T17:00:00Z,26.6493,-81.8810,1.819,8.19,1111122 
SCCF RECON,ioos:station:SCCF:53:1,2009-03-02T18:00:00Z,26.6493,-81.8810,1.843,8.61,1111122 
SCCF RECON,ioos:station:SCCF:53:1,2009-03-02T19:00:00Z,26.6493,-81.8810,1.885,8.72,1111122 
SCCF RECON,ioos:station:SCCF:53:1,2009-03-02T20:00:00Z,26.6493,-81.8810,1.93,9.13,1111122 
SCCF RECON,ioos:station:SCCF:53:1,2009-03-02T21:00:00Z,26.6493,-81.8810,1.989,9.02,1111122 
SCCF RECON,ioos:station:SCCF:53:1,2009-03-02T22:00:00Z,26.6493,-81.8810,2.048,8.88,1111122 
SCCF RECON,ioos:station:SCCF:53:1,2009-03-02T23:00:00Z,26.6493,-81.8810,2.101,8.84,1111122 
SCCF RECON,ioos:station:SCCF:53:1,2009-03-03T00:00:00Z,26.6493,-81.8810,2.14,8.7,1111122 
SCCF RECON,ioos:station:SCCF:53:1,2009-03-03T01:00:00Z,26.6493,-81.8810,2.14,8.47,1111122 
SCCF RECON,ioos:station:SCCF:53:1,2009-03-03T02:00:00Z,26.6493,-81.8810,2.11,8.62,1111122 
SCCF RECON,ioos:station:SCCF:53:1,2009-03-03T03:00:00Z,26.6493,-81.8810,2.07,9.1,1111122 
SCCF RECON,ioos:station:SCCF:53:1,2009-03-03T04:00:00Z,26.6493,-81.8810,2.02,8.4,1111122 
SCCF RECON,ioos:station:SCCF:53:1,2009-03-03T05:00:00Z,26.6493,-81.8810,1.98,8.39,1111122 
SCCF RECON,ioos:station:SCCF:53:1,2009-03-03T06:00:00Z,26.6493,-81.8810,1.93,8.24,1111122 
SCCF RECON,ioos:station:SCCF:53:1,2009-03-03T07:00:00Z,26.6493,-81.8810,1.89,8.08,1111122 
SCCF RECON,ioos:station:SCCF:53:1,2009-03-03T08:00:00Z,26.6493,-81.8810,1.851,7.96,1111122 
SCCF RECON,ioos:station:SCCF:53:1,2009-03-03T09:00:00Z,26.6493,-81.8810,1.83,7.97,1111122 
SCCF RECON,ioos:station:SCCF:53:1,2009-03-03T10:00:00Z,26.6493,-81.8810,1.83,7.99,1111122 
SCCF RECON,ioos:station:SCCF:53:1,2009-03-03T11:00:00Z,26.6493,-81.8810,1.863,8.01,1111122 
SCCF RECON,ioos:station:SCCF:53:1,2009-03-03T12:00:00Z,26.6493,-81.8810,1.9,8.11,1111122 
SCCF RECON,ioos:station:SCCF:53:1,2009-03-03T13:00:00Z,26.6493,-81.8810,1.93,8.23,1111122 
SCCF RECON,ioos:station:SCCF:53:1,2009-03-03T14:00:00Z,26.6493,-81.8810,1.95,8.29,1111122 
SCCF RECON,ioos:station:SCCF:53:1,2009-03-03T15:00:00Z,26.6493,-81.8810,1.94,8.42,1111122 
SCCF RECON,ioos:station:SCCF:53:1,2009-03-03T16:00:00Z,26.6493,-81.8810,1.91,8.43,1111122 
SCCF RECON,ioos:station:SCCF:53:1,2009-03-03T17:00:00Z,26.6493,-81.8810,1.905,8.48,1111122 
SCCF RECON,ioos:station:SCCF:53:1,2009-03-03T18:00:00Z,26.6493,-81.8810,1.92,8.71,1111122 
SCCF RECON,ioos:station:SCCF:53:1,2009-03-03T19:00:00Z,26.6493,-81.8810,1.945,8.68,1111122 
SCCF RECON,ioos:station:SCCF:53:1,2009-03-03T20:00:00Z,26.6493,-81.8810,1.985,8.87,1111122 
SCCF RECON,ioos:station:SCCF:53:1,2009-03-03T21:00:00Z,26.6493,-81.8810,2.036,8.89,1111122 
SCCF RECON,ioos:station:SCCF:53:1,2009-03-03T22:00:00Z,26.6493,-81.8810,2.09,8.88,1111122 
SCCF RECON,ioos:station:SCCF:53:1,2009-03-03T23:00:00Z,26.6493,-81.8810,2.14,9.08,1111122 
SCCF RECON,ioos:station:SCCF:53:1,2009-03-04T00:00:00Z,26.6493,-81.8810,2.181,9.18,1111122 
SCCF RECON,ioos:station:SCCF:53:1,2009-03-04T01:00:00Z,26.6493,-81.8810,2.206,9.15,1111122 
SCCF RECON,ioos:station:SCCF:53:1,2009-03-04T02:00:00Z,26.6493,-81.8810,2.18,9.16,1111122 
SCCF RECON,ioos:station:SCCF:53:1,2009-03-04T03:00:00Z,26.6493,-81.8810,2.144,9.06,1111122 
SCCF RECON,ioos:station:SCCF:53:1,2009-03-04T04:00:00Z,26.6493,-81.8810,2.091,8.96,1111122 
SCCF RECON,ioos:station:SCCF:53:1,2009-03-04T05:00:00Z,26.6493,-81.8810,2.04,8.95,1111122 
SCCF RECON,ioos:station:SCCF:53:1,2009-03-04T06:00:00Z,26.6493,-81.8810,1.991,8.95,1111122 
SCCF RECON,ioos:station:SCCF:53:1,2009-03-04T07:00:00Z,26.6493,-81.8810,1.944,8.87,1111122 
SCCF RECON,ioos:station:SCCF:53:1,2009-03-04T08:00:00Z,26.6493,-81.8810,1.91,8.87,1111122 
SCCF RECON,ioos:station:SCCF:53:1,2009-03-04T09:00:00Z,26.6493,-81.8810,1.87,8.88,1111122 
SCCF RECON,ioos:station:SCCF:53:1,2009-03-04T10:00:00Z,26.6493,-81.8810,1.837,9.06,1111122 
SCCF RECON,ioos:station:SCCF:53:1,2009-03-04T11:00:00Z,26.6493,-81.8810,1.82,9.05,1111122 
SCCF RECON,ioos:station:SCCF:53:1,2009-03-04T12:00:00Z,26.6493,-81.8810,1.81,9.1,1111122 
SCCF RECON,ioos:station:SCCF:53:1,2009-03-04T13:00:00Z,26.6493,-81.8810,1.8,9.12,1111122 
SCCF RECON,ioos:station:SCCF:53:1,2009-03-04T14:00:00Z,26.6493,-81.8810,1.837,9.36,1111122 
SCCF RECON,ioos:station:SCCF:53:1,2009-03-04T15:00:00Z,26.6493,-81.8810,1.876,9.53,1111122 
SCCF RECON,ioos:station:SCCF:53:1,2009-03-04T16:00:00Z,26.6493,-81.8810,1.89,9.31,1111122 
SCCF RECON,ioos:station:SCCF:53:1,2009-03-04T17:00:00Z,26.6493,-81.8810,1.92,9.29,1111122 
SCCF RECON,ioos:station:SCCF:53:1,2009-03-04T18:00:00Z,26.6493,-81.8810,1.945,9.16,1111122 
SCCF RECON,ioos:station:SCCF:53:1,2009-03-04T19:00:00Z,26.6493,-81.8810,1.97,9.16,1111122 
SCCF RECON,ioos:station:SCCF:53:1,2009-03-04T20:00:00Z,26.6493,-81.8810,2.004,9.35,1111122 
SCCF RECON,ioos:station:SCCF:53:1,2009-03-04T21:00:00Z,26.6493,-81.8810,2.051,9.27,1111122 
SCCF RECON,ioos:station:SCCF:53:1,2009-03-04T22:00:00Z,26.6493,-81.8810,2.109,9.27,1111122 
SCCF RECON,ioos:station:SCCF:53:1,2009-03-04T23:00:00Z,26.6493,-81.8810,2.17,9.36,1111122 
SCCF RECON,ioos:station:SCCF:53:1,2009-03-05T00:00:00Z,26.6493,-81.8810,2.22,9.28,1111122 
SCCF RECON,ioos:station:SCCF:53:1,2009-03-05T01:00:00Z,26.6493,-81.8810,2.27,8.99,1111122 
SCCF RECON,ioos:station:SCCF:53:1,2009-03-05T02:00:00Z,26.6493,-81.8810,2.29,9.03,1111122 
SCCF RECON,ioos:station:SCCF:53:1,2009-03-05T03:00:00Z,26.6493,-81.8810,2.25,8.73,1111122 
SCCF RECON,ioos:station:SCCF:53:1,2009-03-05T04:00:00Z,26.6493,-81.8810,2.2,8.75,1111122 
SCCF RECON,ioos:station:SCCF:53:1,2009-03-05T05:00:00Z,26.6493,-81.8810,2.15,9.05,1111122 
SCCF RECON,ioos:station:SCCF:53:1,2009-03-05T06:00:00Z,26.6493,-81.8810,2.11,8.93,1111122 
SCCF RECON,ioos:station:SCCF:53:1,2009-03-05T07:00:00Z,26.6493,-81.8810,2.06,8.8,1111122 
SCCF RECON,ioos:station:SCCF:53:1,2009-03-05T08:00:00Z,26.6493,-81.8810,2.01,8.72,1111122 
SCCF RECON,ioos:station:SCCF:53:1,2009-03-05T09:00:00Z,26.6493,-81.8810,1.96,8.72,1111122 
SCCF RECON,ioos:station:SCCF:53:1,2009-03-05T10:00:00Z,26.6493,-81.8810,1.92,8.98,1111122 
SCCF RECON,ioos:station:SCCF:53:1,2009-03-05T11:00:00Z,26.6493,-81.8810,1.9,8.67,1111122 
SCCF RECON,ioos:station:SCCF:53:1,2009-03-05T12:00:00Z,26.6493,-81.8810,1.898,8.8,1111122 
SCCF RECON,ioos:station:SCCF:53:1,2009-03-05T13:00:00Z,26.6493,-81.8810,1.92,8.79,1111122 
SCCF RECON,ioos:station:SCCF:53:1,2009-03-05T14:00:00Z,26.6493,-81.8810,1.96,8.76,1111122 
SCCF RECON,ioos:station:SCCF:53:1,2009-03-05T15:00:00Z,26.6493,-81.8810,1.991,9.1,1111122 
SCCF RECON,ioos:station:SCCF:53:1,2009-03-05T16:00:00Z,26.6493,-81.8810,2.02,8.98,1111122 
SCCF RECON,ioos:station:SCCF:53:1,2009-03-05T17:00:00Z,26.6493,-81.8810,2.04,8.9,1111122 
SCCF RECON,ioos:station:SCCF:53:1,2009-03-05T18:00:00Z,26.6493,-81.8810,2.046,8.92,1111122 
SCCF RECON,ioos:station:SCCF:53:1,2009-03-05T19:00:00Z,26.6493,-81.8810,2.042,9.12,1111122 
SCCF RECON,ioos:station:SCCF:53:1,2009-03-05T20:00:00Z,26.6493,-81.8810,2.053,9.14,1111122 
SCCF RECON,ioos:station:SCCF:53:1,2009-03-05T21:00:00Z,26.6493,-81.8810,2.09,9.24,1111122 
SCCF RECON,ioos:station:SCCF:53:1,2009-03-05T22:00:00Z,26.6493,-81.8810,2.124,9.34,1111122 
SCCF RECON,ioos:station:SCCF:53:1,2009-03-05T23:00:00Z,26.6493,-81.8810,2.171,9.31,1111122 
SCCF RECON,ioos:station:SCCF:53:1,2009-03-06T00:00:00Z,26.6493,-81.8810,2.23,9.32,1111122 
SCCF RECON,ioos:station:SCCF:53:1,2009-03-06T01:00:00Z,26.6493,-81.8810,2.289,9.46,1111122 
SCCF RECON,ioos:station:SCCF:53:1,2009-03-06T02:00:00Z,26.6493,-81.8810,2.34,9.37,1111122 
SCCF RECON,ioos:station:SCCF:53:1,2009-03-06T03:00:00Z,26.6493,-81.8810,2.37,9.26,1111122 
SCCF RECON,ioos:station:SCCF:53:1,2009-03-06T04:00:00Z,26.6493,-81.8810,2.37,9.03,1111122 
SCCF RECON,ioos:station:SCCF:53:1,2009-03-06T05:00:00Z,26.6493,-81.8810,2.32,8.78,1111122 
SCCF RECON,ioos:station:SCCF:53:1,2009-03-06T06:00:00Z,26.6493,-81.8810,2.26,8.81,1111122 
SCCF RECON,ioos:station:SCCF:53:1,2009-03-06T07:00:00Z,26.6493,-81.8810,2.21,8.88,1111122 
SCCF RECON,ioos:station:SCCF:53:1,2009-03-06T08:00:00Z,26.6493,-81.8810,2.15,9.02,1111122 
SCCF RECON,ioos:station:SCCF:53:1,2009-03-06T09:00:00Z,26.6493,-81.8810,2.09,9.04,1111122 
SCCF RECON,ioos:station:SCCF:53:1,2009-03-06T10:00:00Z,26.6493,-81.8810,2.041,8.93,1111122 
SCCF RECON,ioos:station:SCCF:53:1,2009-03-06T11:00:00Z,26.6493,-81.8810,2.0,8.73,1111122 
SCCF RECON,ioos:station:SCCF:53:1,2009-03-06T12:00:00Z,26.6493,-81.8810,1.97,8.41,1111122 
SCCF RECON,ioos:station:SCCF:53:1,2009-03-06T13:00:00Z,26.6493,-81.8810,1.96,8.29,1111122 
SCCF RECON,ioos:station:SCCF:53:1,2009-03-06T14:00:00Z,26.6493,-81.8810,1.97,8.21,1111122 
SCCF RECON,ioos:station:SCCF:53:1,2009-03-06T15:00:00Z,26.6493,-81.8810,2.005,8.35,1111122 
SCCF RECON,ioos:station:SCCF:53:1,2009-03-06T16:00:00Z,26.6493,-81.8810,2.042,8.81,1111122 
SCCF RECON,ioos:station:SCCF:53:1,2009-03-06T17:00:00Z,26.6493,-81.8810,2.079,9.01,1111122 
SCCF RECON,ioos:station:SCCF:53:1,2009-03-06T18:00:00Z,26.6493,-81.8810,2.105,8.96,1111122 
SCCF RECON,ioos:station:SCCF:53:1,2009-03-06T19:00:00Z,26.6493,-81.8810,2.125,8.79,1111122 
SCCF RECON,ioos:station:SCCF:53:1,2009-03-06T20:00:00Z,26.6493,-81.8810,2.128,8.6,1111122 
SCCF RECON,ioos:station:SCCF:53:1,2009-03-06T21:00:00Z,26.6493,-81.8810,2.13,8.67,1111122 
SCCF RECON,ioos:station:SCCF:53:1,2009-03-06T22:00:00Z,26.6493,-81.8810,2.15,8.97,1111122 
SCCF RECON,ioos:station:SCCF:53:1,2009-03-06T23:00:00Z,26.6493,-81.8810,2.185,9.06,1111122 
SCCF RECON,ioos:station:SCCF:53:1,2009-03-07T00:00:00Z,26.6493,-81.8810,2.22,9.32,1111122 
SCCF RECON,ioos:station:SCCF:53:1,2009-03-07T01:00:00Z,26.6493,-81.8810,2.27,9.15,1111122 
SCCF RECON,ioos:station:SCCF:53:1,2009-03-07T02:00:00Z,26.6493,-81.8810,2.32,8.89,1111122 
SCCF RECON,ioos:station:SCCF:53:1,2009-03-07T03:00:00Z,26.6493,-81.8810,2.364,8.7,1111122 
SCCF RECON,ioos:station:SCCF:53:1,2009-03-07T04:00:00Z,26.6493,-81.8810,2.4,8.54,1111122 
SCCF RECON,ioos:station:SCCF:53:1,2009-03-07T05:00:00Z,26.6493,-81.8810,2.4,8.5,1111122 
SCCF RECON,ioos:station:SCCF:53:1,2009-03-07T06:00:00Z,26.6493,-81.8810,2.35,8.28,1111122 
SCCF RECON,ioos:station:SCCF:53:1,2009-03-07T07:00:00Z,26.6493,-81.8810,2.29,8.62,1111122 
SCCF RECON,ioos:station:SCCF:53:1,2009-03-07T08:00:00Z,26.6493,-81.8810,2.23,8.39,1111122 
SCCF RECON,ioos:station:SCCF:53:1,2009-03-07T09:00:00Z,26.6493,-81.8810,2.17,8.61,1111122 
SCCF RECON,ioos:station:SCCF:53:1,2009-03-07T10:00:00Z,26.6493,-81.8810,2.12,8.69,1111122 
SCCF RECON,ioos:station:SCCF:53:1,2009-03-07T11:00:00Z,26.6493,-81.8810,2.07,8.39,1111122 
SCCF RECON,ioos:station:SCCF:53:1,2009-03-07T12:00:00Z,26.6493,-81.8810,2.02,8.62,1111122 
SCCF RECON,ioos:station:SCCF:53:1,2009-03-07T13:00:00Z,26.6493,-81.8810,1.99,8.62,1111122 
SCCF RECON,ioos:station:SCCF:53:1,2009-03-07T14:00:00Z,26.6493,-81.8810,1.98,8.92,1111122 
SCCF RECON,ioos:station:SCCF:53:1,2009-03-07T15:00:00Z,26.6493,-81.8810,2.0,8.63,1111122 
SCCF RECON,ioos:station:SCCF:53:1,2009-03-07T16:00:00Z,26.6493,-81.8810,2.04,8.64,1111122 
SCCF RECON,ioos:station:SCCF:53:1,2009-03-07T17:00:00Z,26.6493,-81.8810,2.08,9.09,1111122 
SCCF RECON,ioos:station:SCCF:53:1,2009-03-07T18:00:00Z,26.6493,-81.8810,2.104,8.26,1111122 
SCCF RECON,ioos:station:SCCF:53:1,2009-03-07T19:00:00Z,26.6493,-81.8810,2.129,8.08,1111122 
SCCF RECON,ioos:station:SCCF:53:1,2009-03-07T20:00:00Z,26.6493,-81.8810,2.136,8.25,1111122 
SCCF RECON,ioos:station:SCCF:53:1,2009-03-07T21:00:00Z,26.6493,-81.8810,2.126,8.09,1111122 
SCCF RECON,ioos:station:SCCF:53:1,2009-03-07T22:00:00Z,26.6493,-81.8810,2.12,8.31,1111122 
SCCF RECON,ioos:station:SCCF:53:1,2009-03-07T23:00:00Z,26.6493,-81.8810,2.127,8.04,1111122 
SCCF RECON,ioos:station:SCCF:53:1,2009-03-08T00:00:00Z,26.6493,-81.8810,2.16,8.06,1111122 
SCCF RECON,ioos:station:SCCF:53:1,2009-03-08T01:00:00Z,26.6493,-81.8810,2.21,7.53,1111122 
SCCF RECON,ioos:station:SCCF:53:1,2009-03-08T02:00:00Z,26.6493,-81.8810,2.26,7.46,1111122 
SCCF RECON,ioos:station:SCCF:53:1,2009-03-08T03:00:00Z,26.6493,-81.8810,2.31,7.67,1111122 
SCCF RECON,ioos:station:SCCF:53:1,2009-03-08T04:00:00Z,26.6493,-81.8810,2.361,8.11,1111122 
SCCF RECON,ioos:station:SCCF:53:1,2009-03-08T05:00:00Z,26.6493,-81.8810,2.41,8.4,1111122 
SCCF RECON,ioos:station:SCCF:53:1,2009-03-08T06:00:00Z,26.6493,-81.8810,2.43,8.66,1111122 
SCCF RECON,ioos:station:SCCF:53:1,2009-03-08T07:00:00Z,26.6493,-81.8810,2.39,7.98,1111122 
SCCF RECON,ioos:station:SCCF:53:1,2009-03-08T08:00:00Z,26.6493,-81.8810,2.32,8.43,1111122 
SCCF RECON,ioos:station:SCCF:53:1,2009-03-08T09:00:00Z,26.6493,-81.8810,2.26,7.84,1111122 
SCCF RECON,ioos:station:SCCF:53:1,2009-03-08T10:00:00Z,26.6493,-81.8810,2.2,8.12,1111122 
SCCF RECON,ioos:station:SCCF:53:1,2009-03-08T11:00:00Z,26.6493,-81.8810,2.15,8.02,1111122 
SCCF RECON,ioos:station:SCCF:53:1,2009-03-08T12:00:00Z,26.6493,-81.8810,2.1,8.12,1111122 
SCCF RECON,ioos:station:SCCF:53:1,2009-03-08T13:00:00Z,26.6493,-81.8810,2.053,7.96,1111122 
SCCF RECON,ioos:station:SCCF:53:1,2009-03-08T14:00:00Z,26.6493,-81.8810,2.021,7.7,1111122 
SCCF RECON,ioos:station:SCCF:53:1,2009-03-08T15:00:00Z,26.6493,-81.8810,2.016,8.05,1111122 
SCCF RECON,ioos:station:SCCF:53:1,2009-03-08T16:00:00Z,26.6493,-81.8810,2.042,7.79,1111122 
SCCF RECON,ioos:station:SCCF:53:1,2009-03-08T17:00:00Z,26.6493,-81.8810,2.08,8.36,1111122 
SCCF RECON,ioos:station:SCCF:53:1,2009-03-08T18:00:00Z,26.6493,-81.8810,2.129,8.0,1111122 
SCCF RECON,ioos:station:SCCF:53:1,2009-03-08T19:00:00Z,26.6493,-81.8810,2.16,7.66,1111122 
SCCF RECON,ioos:station:SCCF:53:1,2009-03-08T20:00:00Z,26.6493,-81.8810,2.186,7.47,1111122 
SCCF RECON,ioos:station:SCCF:53:1,2009-03-08T21:00:00Z,26.6493,-81.8810,2.177,7.77,1111122 
SCCF RECON,ioos:station:SCCF:53:1,2009-03-08T22:00:00Z,26.6493,-81.8810,2.139,7.85,1111122 
SCCF RECON,ioos:station:SCCF:53:1,2009-03-08T23:00:00Z,26.6493,-81.8810,2.108,7.82,1111122 
SCCF RECON,ioos:station:SCCF:53:1,2009-03-09T00:00:00Z,26.6493,-81.8810,2.079,7.63,1111122 
SCCF RECON,ioos:station:SCCF:53:1,2009-03-09T01:00:00Z,26.6493,-81.8810,2.08,7.42,1111122 
SCCF RECON,ioos:station:SCCF:53:1,2009-03-09T02:00:00Z,26.6493,-81.8810,2.13,7.23,1111122 
SCCF RECON,ioos:station:SCCF:53:1,2009-03-09T03:00:00Z,26.6493,-81.8810,2.19,7.12,1111122 
SCCF RECON,ioos:station:SCCF:53:1,2009-03-09T04:00:00Z,26.6493,-81.8810,2.255,7.12,1111122 
SCCF RECON,ioos:station:SCCF:53:1,2009-03-09T05:00:00Z,26.6493,-81.8810,2.32,7.36,1111122 
SCCF RECON,ioos:station:SCCF:53:1,2009-03-09T06:00:00Z,26.6493,-81.8810,2.37,7.27,1111122 
SCCF RECON,ioos:station:SCCF:53:1,2009-03-09T07:00:00Z,26.6493,-81.8810,2.399,7.88,1111122 
SCCF RECON,ioos:station:SCCF:53:1,2009-03-09T08:00:00Z,26.6493,-81.8810,2.36,7.29,1111122 
SCCF RECON,ioos:station:SCCF:53:1,2009-03-09T09:00:00Z,26.6493,-81.8810,2.3,7.53,1111122 
SCCF RECON,ioos:station:SCCF:53:1,2009-03-09T10:00:00Z,26.6493,-81.8810,2.25,7.34,1111122 
SCCF RECON,ioos:station:SCCF:53:1,2009-03-09T11:00:00Z,26.6493,-81.8810,2.19,6.84,1111122 
SCCF RECON,ioos:station:SCCF:53:1,2009-03-09T12:00:00Z,26.6493,-81.8810,2.14,6.88,1111122 
SCCF RECON,ioos:station:SCCF:53:1,2009-03-09T13:00:00Z,26.6493,-81.8810,2.096,6.98,1111122 
SCCF RECON,ioos:station:SCCF:53:1,2009-03-09T14:00:00Z,26.6493,-81.8810,2.05,7.16,1111122 
SCCF RECON,ioos:station:SCCF:53:1,2009-03-09T15:00:00Z,26.6493,-81.8810,2.029,7.14,1111122 
SCCF RECON,ioos:station:SCCF:53:1,2009-03-09T16:00:00Z,26.6493,-81.8810,2.055,7.38,1111122 
SCCF RECON,ioos:station:SCCF:53:1,2009-03-09T17:00:00Z,26.6493,-81.8810,2.099,7.59,1111122 
SCCF RECON,ioos:station:SCCF:53:1,2009-03-09T18:00:00Z,26.6493,-81.8810,2.138,7.62,1111122 
SCCF RECON,ioos:station:SCCF:53:1,2009-03-09T19:00:00Z,26.6493,-81.8810,2.186,7.39,1111122 
SCCF RECON,ioos:station:SCCF:53:1,2009-03-09T20:00:00Z,26.6493,-81.8810,2.219,7.41,1111122 
SCCF RECON,ioos:station:SCCF:53:1,2009-03-09T21:00:00Z,26.6493,-81.8810,2.221,7.0,1111122 
SCCF RECON,ioos:station:SCCF:53:1,2009-03-09T22:00:00Z,26.6493,-81.8810,2.189,7.48,1111122 
SCCF RECON,ioos:station:SCCF:53:1,2009-03-09T23:00:00Z,26.6493,-81.8810,2.147,7.14,1111122 
SCCF RECON,ioos:station:SCCF:53:1,2009-03-10T00:00:00Z,26.6493,-81.8810,2.11,7.46,1111122 
SCCF RECON,ioos:station:SCCF:53:1,2009-03-10T01:00:00Z,26.6493,-81.8810,2.07,7.26,1111122 
SCCF RECON,ioos:station:SCCF:53:1,2009-03-10T02:00:00Z,26.6493,-81.8810,2.05,6.44,1111122 
SCCF RECON,ioos:station:SCCF:53:1,2009-03-10T03:00:00Z,26.6493,-81.8810,2.1,6.71,1111122 
SCCF RECON,ioos:station:SCCF:53:1,2009-03-10T04:00:00Z,26.6493,-81.8810,2.16,7.03,1111122 
SCCF RECON,ioos:station:SCCF:53:1,2009-03-10T05:00:00Z,26.6493,-81.8810,2.21,6.85,1111122 
SCCF RECON,ioos:station:SCCF:53:1,2009-03-10T06:00:00Z,26.6493,-81.8810,2.27,6.98,1111122 
SCCF RECON,ioos:station:SCCF:53:1,2009-03-10T07:00:00Z,26.6493,-81.8810,2.33,6.93,1111122 
SCCF RECON,ioos:station:SCCF:53:1,2009-03-10T08:00:00Z,26.6493,-81.8810,2.35,6.91,1111122 
SCCF RECON,ioos:station:SCCF:53:1,2009-03-10T09:00:00Z,26.6493,-81.8810,2.31,6.76,1111122 
SCCF RECON,ioos:station:SCCF:53:1,2009-03-10T10:00:00Z,26.6493,-81.8810,2.26,6.72,1111122 
SCCF RECON,ioos:station:SCCF:53:1,2009-03-10T11:00:00Z,26.6493,-81.8810,2.202,6.36,1111122 
SCCF RECON,ioos:station:SCCF:53:1,2009-03-10T12:00:00Z,26.6493,-81.8810,2.15,6.62,1111122 
SCCF RECON,ioos:station:SCCF:53:1,2009-03-10T13:00:00Z,26.6493,-81.8810,2.1,6.56,1111122 
SCCF RECON,ioos:station:SCCF:53:1,2009-03-10T14:00:00Z,26.6493,-81.8810,2.058,6.36,1111122 
SCCF RECON,ioos:station:SCCF:53:1,2009-03-10T15:00:00Z,26.6493,-81.8810,2.02,6.53,1111122 
SCCF RECON,ioos:station:SCCF:53:1,2009-03-10T16:00:00Z,26.6493,-81.8810,2.03,6.84,1111122 
SCCF RECON,ioos:station:SCCF:53:1,2009-03-10T17:00:00Z,26.6493,-81.8810,2.08,6.82,1111122 
SCCF RECON,ioos:station:SCCF:53:1,2009-03-10T18:00:00Z,26.6493,-81.8810,2.119,6.77,1111122 
SCCF RECON,ioos:station:SCCF:53:1,2009-03-10T19:00:00Z,26.6493,-81.8810,2.166,6.95,1111122 
SCCF RECON,ioos:station:SCCF:53:1,2009-03-10T20:00:00Z,26.6493,-81.8810,2.215,6.79,1111122 
SCCF RECON,ioos:station:SCCF:53:1,2009-03-10T21:00:00Z,26.6493,-81.8810,2.23,6.75,1111122 
SCCF RECON,ioos:station:SCCF:53:1,2009-03-10T22:00:00Z,26.6493,-81.8810,2.2,7.87,1111122 
SCCF RECON,ioos:station:SCCF:53:1,2009-03-10T23:00:00Z,26.6493,-81.8810,2.16,7.17,1111122 
SCCF RECON,ioos:station:SCCF:53:1,2009-03-11T00:00:00Z,26.6493,-81.8810,2.113,7.14,1111122 
SCCF RECON,ioos:station:SCCF:53:1,2009-03-11T01:00:00Z,26.6493,-81.8810,2.07,7.05,1111122 
SCCF RECON,ioos:station:SCCF:53:1,2009-03-11T02:00:00Z,26.6493,-81.8810,2.03,6.35,1111122 
SCCF RECON,ioos:station:SCCF:53:1,2009-03-11T03:00:00Z,26.6493,-81.8810,2.02,5.95,1111122 
SCCF RECON,ioos:station:SCCF:53:1,2009-03-11T04:00:00Z,26.6493,-81.8810,2.07,6.23,1111122 
SCCF RECON,ioos:station:SCCF:53:1,2009-03-11T05:00:00Z,26.6493,-81.8810,2.13,6.92,1111122 
SCCF RECON,ioos:station:SCCF:53:1,2009-03-11T06:00:00Z,26.6493,-81.8810,2.18,6.48,1111122 
SCCF RECON,ioos:station:SCCF:53:1,2009-03-11T07:00:00Z,26.6493,-81.8810,2.24,6.33,1111122 
SCCF RECON,ioos:station:SCCF:53:1,2009-03-11T08:00:00Z,26.6493,-81.8810,2.3,6.4,1111122 
SCCF RECON,ioos:station:SCCF:53:1,2009-03-11T09:00:00Z,26.6493,-81.8810,2.32,6.5,1111122 
SCCF RECON,ioos:station:SCCF:53:1,2009-03-11T10:00:00Z,26.6493,-81.8810,2.29,6.35,1111122 
SCCF RECON,ioos:station:SCCF:53:1,2009-03-11T11:00:00Z,26.6493,-81.8810,2.24,7.16,1111122 
SCCF RECON,ioos:station:SCCF:53:1,2009-03-11T12:00:00Z,26.6493,-81.8810,2.19,6.52,1111122 
SCCF RECON,ioos:station:SCCF:53:1,2009-03-11T13:00:00Z,26.6493,-81.8810,2.148,6.17,1111122 
SCCF RECON,ioos:station:SCCF:53:1,2009-03-11T14:00:00Z,26.6493,-81.8810,2.102,6.13,1111122 
SCCF RECON,ioos:station:SCCF:53:1,2009-03-11T15:00:00Z,26.6493,-81.8810,2.061,6.3,1111122 
SCCF RECON,ioos:station:SCCF:53:1,2009-03-11T16:00:00Z,26.6493,-81.8810,2.066,6.63,1111122 
SCCF RECON,ioos:station:SCCF:53:1,2009-03-11T17:00:00Z,26.6493,-81.8810,2.117,6.56,1111122 
SCCF RECON,ioos:station:SCCF:53:1,2009-03-11T18:00:00Z,26.6493,-81.8810,2.157,6.88,1111122 
SCCF RECON,ioos:station:SCCF:53:1,2009-03-11T19:00:00Z,26.6493,-81.8810,2.199,7.21,1111122 
SCCF RECON,ioos:station:SCCF:53:1,2009-03-11T20:00:00Z,26.6493,-81.8810,2.245,7.24,1111122 